Regional Weather Roundup
Issued by NWS

Home | Current Version | Previous Version | Text Only | Print | Product List | Glossary Off
Versions: 1 2 3 4 5 6 7 8 9 10 11 12 13 14 15 16 17 18 19 20 21 22 23 24 25 26 27 28 29 30 31 32 33 34 35 36 37 38 39 40 41 42 43 44 45 46 47 48 49 50

000
ASUS43 KDTX 231601
RWRMI
MICHIGAN HOURLY REGIONAL WEATHER ROUNDUP
NATIONAL WEATHER SERVICE DETROIT/PONTIAC MI
1200 PM EDT SUN JUL 23 2017

NOTE: "FAIR" INDICATES FEW OR NO CLOUDS BELOW 12,000 FEET WITH NO
SIGNIFICANT WEATHER AND/OR OBSTRUCTION TO VISIBILITY.

MIZ047>049-052>055-059>063-066>070-074>076-081>083-231700-
SOUTHEAST LOWER MICHIGAN

CITY           SKY/WX    TMP DP  RH WIND       PRES   REMARKS
ADRIAN         PTSUNNY   77  69  76 SW6       29.80S
ALMA           CLOUDY    74  66  77 NW6       29.82S
ANN ARBOR      MOSUNNY   78  69  73 VRB3      29.79F
BAD AXE        CLOUDY    73  66  79 S5        29.81S
CARO           PTSUNNY   74  66  75 CALM      29.79F
DETROIT CITY   PTSUNNY   79  66  64 VRB7      29.79S
DETROIT        PTSUNNY   80  67  64 VRB3      29.79F
FLINT          CLOUDY    72  66  81 VRB7      29.81S
GROSSE ILE     MOSUNNY   78  68  72 S7        29.78S
HILLSDALE      CLOUDY    79  68  69 W6        29.81S
HOWELL         CLOUDY    73  67  83 CALM      29.82S

CITY           SKY/WX    TMP DP  RH WIND       PRES   REMARKS
JACKSON        MOSUNNY   80  67  64 CALM      29.80S
LAMBERTVILLE   CLOUDY    78  69  73 W3        29.78F
LANSING        CLOUDY    73  66  78 CALM      29.82R
LAPEER         CLOUDY    74  66  76 CALM      29.81F
MASON          CLOUDY    73  69  86 N7        29.82R
MONROE         CLOUDY    79  69  73 CALM      29.78F
MT. CLEMENS    PTSUNNY   76  68  76 W3        29.78F
PONTIAC        CLOUDY    76  67  73 W7        29.80S
PORT HOPE        N/A     74  65  73 SE7       29.78S
PORT HURON     CLOUDY    73  66  78 CALM      29.80R
TRI CITIES     MOSUNNY   74  69  85 SW8       29.80S
MIDLAND        FAIR      77  66  69 SW6       29.79S
TROY           CLOUDY    77  66  68 CALM      29.81S
SAGINAW HB     PTSUNNY   73  68  83 SW7       29.80S
$$
MIZ043>046-050>051-056>058-064>065-071>073-077>080-231700-
SOUTHWEST LOWER MICHIGAN

CITY           SKY/WX    TMP DP  RH WIND       PRES   REMARKS
BATTLE CREEK   PTSUNNY   80  70  71 W12       29.80F
BENTON HARBOR  MOSUNNY   81  66  60 SW12      29.80S
BIG RAPIDS     CLOUDY    75  65  71 W7        29.80R
COLDWATER      PTSUNNY   78  72  82 SW9       29.81S
FREMONT        PTSUNNY   78  69  72 NW7       29.79F
HOLLAND        MOSUNNY   79  68  69 W9        29.80R
GRAND RAPIDS   PTSUNNY   80  68  66 VRB5      29.80S
IONIA          PTSUNNY   78  67  67 W3        29.80S
KALAMAZOO      MOSUNNY   80  67  64 W9        29.79F
LUDINGTON      CLOUDY    71  68  89 W9        29.80R
MARSHALL       MOSUNNY   82  71  69 W7        29.79S
MUSKEGON       PTSUNNY   78  68  71 SW9       29.80R
SOUTH HAVEN    MOSUNNY   81  71  71 W9        29.79S
$$
MIZ016>042-231700-
NORTHERN LOWER MICHIGAN

CITY           SKY/WX    TMP DP  RH WIND       PRES   REMARKS
ALPENA         CLOUDY    73  64  73 S8        29.78F
BELLAIRE       CLOUDY    73  64  74 SW6       29.77R
CADILLAC       PTSUNNY   75  65  70 SW9       29.80R
CHARLEVOIX     CLOUDY    73  66  79 SW10      29.78S
FRANKFORT      CLOUDY    71  69  93 SW7       29.78R
GAYLORD        CLOUDY    73  62  68 SW8       29.79S
GRAYLING       CLOUDY    73  61  67 W6        29.79S
HARBOR SPRINGS CLOUDY    71  66  83 CALM      29.75S
HOUGHTON LAKE  CLOUDY    74  63  68 SW6       29.80S
MANISTEE       PTSUNNY   71  67  87 W13G21    29.78R
OSCODA         CLOUDY    76  61  60 S5        29.78S
PELLSTON       CLOUDY    70  65  84 CALM      29.76F
ROGERS CITY    CLOUDY    72  63  73 S5        29.77F
TRAVERSE CITY  CLOUDY    77  66  68 SW7       29.75R
$$
MIZ007>008-015-231700-
EASTERN UPPER MICHIGAN

CITY           SKY/WX    TMP DP  RH WIND       PRES   REMARKS
KINROSS        LGT RAIN  58  57  97 E15       29.80F
MACKINAC ISLAN LGT RAIN  61  61 100 E15G26    29.77F
NEWBERRY       CLOUDY    59  58  97 NE9       29.77S
S. S. MARIE    RAIN      59  57  93 E9        29.81S FOG
MUNISING         N/A     62  62 100 NW13      29.79R
$$
MIZ004>006-011>014-085-231700-
CENTRAL UPPER MICHIGAN

CITY           SKY/WX    TMP DP  RH WIND       PRES   REMARKS
MANISTIQUE     CLOUDY    67  64  89 NW10G18   29.77R
ESCANABA       CLOUDY    67  64  90 VRB7      29.78R
MENOMINEE      PTSUNNY   75  66  73 VRB7      29.78S
SAWYER-GWINN   LGT RAIN  55  55 100 N15       29.83R
$$
MIZ001>003-009>011-084-231700-
WESTERN UPPER MICHIGAN

CITY           SKY/WX    TMP DP  RH WIND       PRES   REMARKS
IRON MOUNTAIN  MOSUNNY   72  58  61 N13       29.81R
HOUGHTON       CLOUDY    59  56  89 VRB7      29.88R
COPPER HARBOR    N/A     54  52  93 NE3       29.89R
IRONWOOD       FOG       56  56 100 NW6       29.91R VSB 3/4
$$

ABBREVIATIONS USED IN REMARKS
   TC - TEMPERATURE IN CELSIUS
  WCI - WIND CHILL INDEX
   HX - HEAT INDEX
  VSB - VISIBILITY





USA.gov is the U.S. government's official web portal to all federal, state and local government web resources and services.